RH
70 70 71 75 84 88 75 56 39 32 39 70 87 88 87 88 100 100 99 89 82 100 88 64 66 76 69 80 91 90 90 83 78 82 64 62 70 65 61 50 67 76 81 81 72 90 82 38 40 50 49 44 50 61
68 67 64 57 54 61 75 88 80 69 58 41 47 82 84 82 89 100 100 100 82 90 96 77 56 51 50 56 84 95 98 86 81 85 91 94 94 89 70 88 56 81 69 66 54 51 37 36 39 35 38 47 50 64
81 77 72 65 60 59 53 58 82 86 81 70 63 50 66 86 95 100 100 100 98 97 93 90 84 73 54 47 55 92 86 93 94 98 99 96 97 91 87 79 64 60 54 57 54 43 42 40 38 38 42 46 47 53
79 83 84 86 85 84 79 73 74 68 67 83 87 63 48 50 81 100 99 99 96 94 100 91 79 66 70 61 52 64 72 80 88 96 99 98 95 80 86 81 74 58 60 59 58 50 44 40 40 40 42 43 49 54
85 85 87 89 88 88 89 89 86 79 70 58 65 74 64 51 43 85 98 99 100 99 100 97 90 81 80 75 68 62 68 94 96 99 98 96 87 85 81 81 88 69 66 63 53 37 47 51 45 44 53 59 60 68
83 82 85 86 83 86 87 85 87 87 77 55 70 88 79 74 77 99 92 100 100 100 100 100 93 91 89 79 73 82 85 91 96 95 95 96 84 86 92 90 74 64 58 54 59 45 52 53 53 52 57 59 66 73
86 87 82 81 81 81 81 80 82 82 77 78 92 81 86 79 92 98 95 98 99 100 100 100 98 92 91 83 88 88 83 89 90 90 91 86 80 86 90 82 58 66 75 64 56 66 60 56 57 56 63 68 69 73
82 81 82 85 80 78 76 79 80 84 81 69 75 86 86 94 96 94 98 99 100 98 100 100 99 91 95 89 92 93 90 88 88 91 93 88 88 91 96 71 67 79 75 72 68 67 71 68 69 65 64 76 80 80
80 79 80 81 83 82 78 78 77 80 81 72 56 80 83 82 82 96 97 98 100 98 100 100 91 91 89 88 89 92 92 94 88 92 88 85 87 93 76 72 78 75 74 77 79 77 76 77 72 73 74 77 81 83
78 77 78 81 80 82 79 81 75 83 84 71 73 95 100 97 98 95 99 100 100 100 100 100 86 93 79 86 90 88 89 89 94 84 84 92 89 74 73 77 83 75 80 86 82 74 72 76 77 79 81 82 84 89
77 77 78 78 82 83 81 79 75 88 96 71 86 92 90 91 97 99 95 99 96 96 91 90 90 92 86 90 88 86 90 90 99 84 88 89 90 84 76 77 78 77 78 84 84 80 82 85 86 87 84 78 80 84
87 79 80 82 83 83 81 81 77 97 89 75 78 98 95 95 94 97 94 94 95 89 84 96 94 90 89 85 91 94 93 92 98 85 92 92 84 78 76 74 72 76 79 84 79 85 82 84 84 86 85 84 85 85
85 84 83 83 84 85 84 82 78 96 95 97 88 89 96 92 99 92 97 92 98 84 91 94 95 87 91 92 94 93 94 91 79 93 86 79 82 78 78 78 77 73 78 87 88 84 84 85 82 84 84 84 89 94
84 78 78 80 77 79 78 77 83 100 98 99 96 97 100 97 90 89 83 79 78 83 90 84 91 88 89 95 92 95 84 87 94 97 85 72 77 74 76 79 83 83 78 82 84 84 83 83 82 79 84 91 93 87
90 87 80 78 76 76 81 74 85 100 98 98 97 96 97 89 94 92 90 84 82 80 84 89 90 87 93 94 93 92 95 92 83 76 67 71 74 74 72 73 80 77 78 73 70 79 77 77 77 76 79 88 94 90
94 91 93 86 83 84 78 78 90 100 100 99 98 99 96 98 97 99 96 91 81 82 85 87 94 94 92 94 95 95 91 88 70 75 67 53 62 61 54 60 59 64 74 71 70 76 79 82 82 79 80 88 93 93
97 98 95 94 88 85 82 97 96 99 98 97 96 96 88 92 85 85 79 76 80 83 95 99 99 92 89 95 92 83 87 58 53 50 48 54 57 50 45 50 63 76 72 71 77 80 81 82 86 85 84 79 91 95
97 95 94 89 89 95 99 100 100 99 99 97 97 94 96 85 74 80 81 87 88 90 93 90 88 95 92 93 69 70 77 66 56 52 50 49 50 50 58 71 73 74 77 79 79 80 81 86 89 85 86 86 91 96
98 98 95 90 93 99 100 100 100 98 91 92 81 87 86 76 80 63 66 82 73 85 91 96 96 94 77 82 76 73 60 52 51 50 47 47 48 61 72 79 84 83 80 81 81 79 77 84 88 88 95 96 90 91
95 93 94 99 96 99 99 99 100 98 95 83 88 70 69 64 60 61 83 92 90 93 96 95 76 58 54 51 51 52 52 55 68 71 67 62 63 77 78 84 86 86 89 84 82 86 88 92 94 94 96 96 95 93
95 92 100 98 99 100 99 98 98 98 98 93 75 74 86 100 86 90 98 92 95 96 79 67 62 55 50 50 67 78 79 76 77 81 86 88 76 83 83 80 81 80 82 81 85 85 87 92 93 96 96 96 96 96
98 98 100 100 100 100 99 98 96 96 96 97 97 96 97 86 87 96 96 93 96 71 66 62 58 65 75 84 76 76 76 87 86 80 79 84 84 80 77 80 84 87 85 86 93 92 88 88 96 97 97 96 96 96
99 97 98 100 98 97 96 96 96 95 95 94 97 100 99 99 96 96 95 92 82 92 91 86 86 82 79 76 73 74 75 90 84 83 82 82 82 83 82 82 81 87 89 84 90 95 94 94 96 96 96 96 96 97
99 98 97 96 96 95 96 97 95 94 94 95 96 95 95 96 94 95 95 93 93 86 83 84 81 77 76 80 75 75 79 94 88 84 81 82 83 80 79 84 85 82 84 87 89 93 95 95 95 97 96 96 96 96
98 96 96 94 95 94 96 96 95 96 94 94 95 95 95 95 95 95 94 92 91 90 85 83 82 83 90 89 81 80 86 85 90 93 87 85 88 90 87 82 80 79 81 87 91 92 91 94 96 96 96 96 96 96
96 94 94 94 94 95 94 95 95 96 94 96 94 95 95 94 94 93 90 94 95 92 93 96 96 91 83 81 88 86 88 97 100 98 86 85 91 95 96 94 91 84 79 83 97 94 92 90 94 96 96 95 94 96
96 96 94 93 94 94 94 93 91 93 96 95 93 95 94 95 94 93 91 90 91 98 100 100 100 96 92 92 93 95 98 100 100 97 88 72 72 82 97 98 93 88 93 100 99 98 95 94 93 95 95 96 96 96
95 94 100 94 95 94 94 95 94 94 94 93 93 95 95 91 91 93 91 100 99 97 95 97 99 98 100 96 98 98 91 89 80 70 66 68 70 74 74 83 96 100 98 97 98 100 100 97 96 96 96 95 96 96
97 92 96 97 95 95 96 96 94 94 93 92 94 94 99 91 94 92 97 100 98 97 100 100 96 94 89 88 92 90 88 94 100 96 93 86 81 77 82 99 99 99 100 99 98 98 97 97 98 97 96 96 96 96
94 96 96 98 97 95 95 94 94 94 94 94 92 91 90 92 98 100 100 100 100 100 100 100 100 100 100 100 99 90 82 95 99 100 96 94 92 95 98 98 100 100 100 100 100 97 98 95 96 97 97 96 96 96
95 96 96 96 98 95 95 94 96 95 94 95 95 95 95 94 97 100 100 100 98 97 98 98 93 100 100 100 100 100 95 94 96 94 100 100 100 98 100 100 100 100 100 100 98 97 97 96 96 95 95 95 95 96
96 100 100 100 98 95 99 100 100 99 98 96 96 95 95 94 95 95 100 97 96 99 99 100 100 99 100 100 94 85 100 98 99 100 97 100 100 99 94 100 96 97 97 96 96 96 97 96 95 95 95 95 96 95
96 96 96 98 96 94 96 100 99 100 97 100 100 99 98 94 97 96 100 100 100 100 100 100 100 100 100 100 67 42 44 55 90 100 100 98 95 97 95 100 94 95 97 97 98 97 96 96 96 96 96 95 95 95
Wind_Speed
1 1 1 2 2 3 5 5 6 8 9 10 10 9 8 8 8 15 10 19 11 3 3 12 10 5 3 3 5 4 2 2 1 3 4 4 4 3 3 4 6 8 6 6 5 6 10 6 5 6 14 19 19 23
1 1 2 2 3 4 5 6 7 8 9 10 11 11 9 8 7 12 7 12 21 3 3 6 14 12 11 9 5 5 2 4 5 3 3 1 4 3 6 5 4 5 8 5 11 9 7 8 14 16 18 19 21 18
3 3 3 4 4 5 6 6 7 8 10 10 10 11 10 9 7 13 11 10 8 2 4 2 6 14 19 17 13 5 3 5 4 2 2 1 6 4 5 7 5 7 6 7 7 10 22 18 21 20 15 15 20 22
5 6 6 6 6 6 6 7 8 9 10 10 11 12 11 10 6 9 15 13 6 3 2 2 3 4 5 13 17 13 5 7 7 1 2 3 3 6 4 3 6 7 1 15 17 21 26 10 10 23 24 23 24 21
7 7 7 8 8 8 8 9 9 9 10 11 11 12 13 11 11 11 16 17 16 4 2 2 3 4 5 6 9 12 8 5 2 2 3 4 2 1 2 2 6 7 8 6 14 18 16 22 23 26 23 23 17 19
9 9 9 10 9 9 9 9 9 9 10 11 11 11 15 10 4 2 3 6 14 13 2 2 0 1 2 2 4 3 5 2 2 3 3 2 1 2 4 5 6 9 8 15 16 16 17 22 23 24 15 23 20 17
10 10 11 11 11 10 11 10 9 9 9 8 8 13 14 1 7 3 2 3 2 9 1 3 2 1 3 2 2 1 2 1 2 2 3 2 2 3 3 10 34 9 2 7 12 11 11 7 13 23 20 21 24 19
12 12 12 12 12 12 12 12 11 9 10 10 10 9 8 3 2 5 6 3 9 2 1 3 2 2 4 2 1 2 1 0 2 2 1 2 2 2 6 19 11 5 6 9 5 7 15 18 18 18 20 13 17 15
15 15 15 14 14 13 12 11 11 10 9 11 11 12 6 3 2 1 3 3 9 3 3 2 3 1 3 2 2 1 1 3 1 3 2 3 3 6 15 9 2 5 5 11 14 13 11 11 17 18 16 14 14 15
18 17 16 16 14 13 13 12 11 10 9 10 7 1 1 2 2 4 1 1 1 3 2 3 0 2 4 2 1 2 1 2 3 2 3 4 5 15 17 10 6 12 8 2 5 10 13 17 18 19 19 15 12 12
18 17 16 16 15 13 12 11 10 7 5 3 2 2 3 2 1 1 2 3 3 3 3 2 4 3 5 3 4 4 2 2 2 2 3 2 4 5 3 4 3 5 8 7 9 13 13 13 15 17 20 16 17 14
18 18 18 17 15 14 13 12 10 10 5 3 2 2 1 1 1 3 3 2 4 4 2 3 3 1 2 2 3 3 2 2 5 4 2 4 5 4 4 4 5 5 9 10 13 11 17 15 15 13 14 16 18 15
21 20 19 18 17 16 15 14 14 13 11 3 1 1 1 1 5 7 7 4 3 4 4 3 2 2 2 2 1 2 5 5 3 3 5 5 2 5 6 5 8 13 13 10 14 15 17 18 19 11 14 17 20 9
22 23 23 21 20 18 17 17 12 19 7 3 5 5 5 5 6 6 4 2 1 1 4 4 3 2 2 3 2 4 2 3 3 4 7 3 4 6 7 5 3 11 12 12 11 14 17 16 16 15 14 13 11 11
22 23 23 23 22 20 19 18 14 23 9 4 4 6 9 4 1 2 2 2 2 3 4 3 2 2 2 3 3 1 3 6 6 5 3 5 8 8 9 8 9 12 10 10 14 11 15 17 16 15 15 15 10 11
23 23 27 25 23 22 20 18 17 10 5 4 7 5 2 0 2 2 3 3 4 4 2 2 2 1 6 3 5 8 3 6 4 4 5 8 10 9 10 9 12 16 14 16 20 18 17 15 15 16 14 14 11 13
25 26 22 23 24 24 23 17 10 7 5 5 5 3 3 1 3 4 5 4 11 5 4 3 5 11 1 4 4 4 6 11 10 9 9 9 10 14 15 11 14 15 16 18 20 19 18 20 14 11 12 15 14 14
30 29 24 25 23 22 24 16 9 6 8 4 4 4 4 4 8 4 5 4 6 5 4 5 2 6 5 5 8 6 6 9 10 11 11 14 16 17 14 11 17 18 18 21 21 20 21 18 13 10 16 18 13 13
31 29 29 29 27 15 7 11 11 5 7 4 6 3 4 6 7 15 4 13 11 3 3 3 6 4 7 7 11 11 11 11 11 11 11 18 21 14 13 13 15 19 22 22 23 21 24 22 20 18 14 12 13 13
30 32 32 33 27 9 5 5 11 5 7 7 3 11 11 11 11 9 4 6 5 3 5 5 11 15 15 15 13 12 11 9 6 9 13 13 16 16 17 17 18 22 23 24 23 22 21 19 17 17 16 16 13 12
28 28 26 27 24 19 4 3 4 3 3 4 8 10 4 1 5 6 3 4 3 5 9 11 14 16 19 17 6 4 3 4 3 4 7 10 15 17 18 19 20 19 17 16 9 15 19 15 20 15 15 15 15 13
19 14 10 24 13 10 4 1 3 4 2 1 2 2 3 8 8 5 4 5 5 12 9 12 11 7 3 3 4 5 6 7 7 10 13 15 9 9 10 16 17 10 15 16 17 15 19 21 19 16 15 14 14 14
16 12 9 10 5 6 4 7 4 4 4 3 3 3 3 3 3 0 4 5 5 2 3 3 2 3 2 3 4 4 5 7 8 10 13 14 16 17 18 18 17 16 11 19 20 21 21 22 20 16 12 12 13 11
8 2 3 2 1 5 3 4 2 4 3 3 4 4 3 3 2 2 4 3 1 2 2 4 6 2 1 2 2 5 8 10 11 12 13 14 10 14 17 20 20 21 21 24 24 23 21 18 18 13 11 11 12 11
4 3 2 2 1 2 2 3 3 3 4 4 5 4 3 3 4 4 4 1 1 2 3 4 3 2 1 2 5 8 9 9 11 8 18 14 16 17 17 18 19 22 22 21 19 20 20 18 14 12 12 13 13 13
5 1 2 2 2 4 5 5 7 6 4 5 6 2 2 3 4 6 3 1 1 2 2 2 3 3 2 3 5 7 11 11 11 9 15 12 15 15 11 10 10 16 17 16 20 21 22 21 17 14 13 18 18 16
3 2 1 1 1 2 1 0 1 1 5 6 4 5 4 5 7 1 2 2 1 2 5 5 3 4 6 11 13 11 14 12 9 16 25 26 23 19 18 14 13 21 25 26 26 26 24 23 20 17 16 16 17 17
1 2 1 3 2 2 2 2 3 4 2 2 4 5 6 5 1 1 2 2 5 6 5 4 4 7 10 12 13 14 11 15 20 16 20 16 13 22 17 23 27 28 29 28 26 25 23 24 21 18 16 16 16 17
1 3 3 3 2 1 0 1 1 1 2 1 2 2 2 2 1 2 2 6 5 4 5 6 9 11 10 9 9 12 10 12 12 11 13 11 12 20 31 33 29 29 28 28 24 22 22 21 20 19 18 18 17 16
3 3 3 2 1 1 1 1 2 1 1 2 3 2 2 2 3 6 5 6 5 5 5 6 7 12 11 11 11 16 13 10 8 9 6 10 14 37 36 30 30 30 29 26 25 25 20 17 13 12 11 13 15 15
4 2 3 1 2 1 2 2 3 1 1 1 2 2 2 3 3 7 12 9 7 6 6 8 7 12 15 13 13 11 8 12 21 19 21 26 28 24 30 30 30 28 26 24 23 20 17 4 7 11 11 11 13 13
4 2 2 3 3 3 2 1 1 2 3 1 1 2 2 2 2 2 10 10 9 8 8 8 7 7 8 13 17 15 12 17 18 23 26 28 25 24 30 27 31 26 24 22 21 16 7 3 5 4 3 4 6 10
3 3 2 2 3 5 3 3 1 1 3 2 2 2 2 2 2 1 3 8 8 8 11 9 6 8 5 7 16 19 18 18 17 17 20 21 23 23 23 26 29 26 25 25 24 21 18 14 11 7 4 4 6 6
Wind_Direction
39 298 295 336 345 359 356 344 321 309 309 305 301 306 324 329 279 249 245 214 195 195 243 198 178 158 131 180 166 139 135 177 102 208 225 224 210 186 230 157 191 190 214 194 187 220 276 161 136 280 306 307 310 306
35 76 51 38 342 326 336 343 339 341 327 309 316 305 306 317 325 259 227 220 210 211 279 241 231 233 234 184 131 187 249 170 189 188 212 166 219 173 221 251 192 251 212 258 207 239 289 242 266 290 289 298 298 301
319 332 335 332 335 343 344 328 327 335 336 335 320 317 312 307 323 234 239 192 172 254 273 246 232 239 232 223 211 146 226 202 195 204 158 165 232 169 216 225 210 235 221 248 295 248 266 281 293 294 302 293 300 301
295 296 298 300 306 311 312 319 327 324 319 319 324 319 320 315 312 264 234 237 196 140 245 225 252 238 238 222 222 216 186 141 96 97 198 200 226 193 234 286 243 259 239 269 277 284 288 273 322 307 308 304 305 305
288 287 290 289 292 298 299 307 309 314 325 324 323 321 319 306 300 258 248 249 227 216 258 258 287 252 258 238 226 225 193 121 126 159 202 225 244 251 207 284 248 192 233 233 272 300 308 308 307 301 308 303 308 309
278 279 280 283 290 292 291 296 300 312 317 328 329 332 323 293 285 231 276 255 247 237 316 276 115 338 340 150 173 189 164 145 190 202 213 225 50 218 271 266 229 213 219 237 272 297 303 292 292 297 308 314 313 311
278 278 280 281 278 283 291 288 290 302 316 328 333 345 354 235 190 206 227 295 307 173 227 274 238 110 97 99 56 93 156 188 186 219 226 226 188 206 247 262 268 267 240 283 275 311 300 280 302 307 307 305 310 299
282 282 280 275 274 271 273 278 283 290 300 306 304 329 344 331 254 260 283 312 155 209 201 261 245 223 167 150 156 358 145 133 203 270 224 209 150 210 257 249 286 328 312 292 309 293 274 285 294 294 310 310 311 316
280 280 280 280 270 267 269 269 273 279 290 305 307 304 294 238 237 238 317 263 221 249 263 212 244 281 149 108 104 137 225 224 100 240 218 180 186 226 237 280 263 289 287 291 304 299 289 286 299 304 312 311 310 312
276 275 273 275 272 267 263 260 260 267 275 297 299 283 259 244 269 295 262 255 229 229 234 242 56 205 159 166 137 151 196 246 248 211 133 223 255 257 265 271 281 288 303 345 311 319 321 315 315 311 306 305 296 291
273 271 272 271 272 268 264 262 256 259 248 269 247 234 247 238 266 237 243 215 172 231 219 226 215 184 196 158 193 209 183 177 252 165 222 239 262 254 283 281 260 269 285 269 238 261 269 267 280 293 301 306 307 308
273 269 271 272 269 265 259 253 244 220 208 243 235 141 6 266 212 236 222 206 215 238 200 194 187 215 149 201 197 182 212 169 248 142 223 249 245 257 292 293 295 275 279 278 267 265 283 277 269 275 287 291 299 305
275 275 273 271 269 266 259 250 236 226 208 184 299 29 26 210 233 222 204 213 224 197 181 169 158 155 133 214 165 172 206 220 120 218 237 246 24 276 244 239 264 272 265 256 281 284 283 280 292 277 284 288 294 276
269 270 270 268 265 261 255 250 242 189 175 182 176 232 209 210 228 206 199 187 210 135 154 153 125 166 155 178 172 223 203 160 232 238 239 261 233 228 226 228 258 277 286 265 268 277 282 290 294 297 290 292 277 257
268 267 265 263 259 255 249 243 228 186 170 201 188 224 218 230 263 329 313 292 194 151 139 130 97 181 176 223 205 157 206 240 224 240 242 227 229 230 256 251 256 280 277 302 311 276 282 292 292 301 299 281 255 249
266 266 259 258 255 250 242 236 222 211 221 207 211 247 147 288 271 227 209 244 174 143 110 73 123 188 229 211 185 219 213 229 247 220 244 268 261 282 284 286 292 290 292 288 286 277 278 283 285 293 289 267 246 240
267 259 258 254 252 245 237 222 204 204 228 228 227 205 167 167 211 207 185 207 161 155 195 154 192 218 105 218 226 197 229 254 260 272 273 262 267 284 287 297 290 277 279 279 277 276 277 283 283 273 268 263 238 235
259 259 255 249 244 242 233 214 193 214 217 204 211 217 192 234 245 225 200 164 155 191 155 215 198 204 241 238 258 253 246 260 271 274 277 278 271 275 286 275 282 279 277 281 285 289 292 283 272 264 262 257 232 226
263 259 256 250 238 226 209 202 192 212 203 188 221 203 198 228 232 249 230 180 194 148 167 195 232 218 248 230 243 252 270 277 281 283 284 279 283 293 294 295 289 291 292 293 293 294 294 285 270 273 261 243 229 216
274 268 256 244 229 212 228 216 192 200 188 210 212 225 221 235 248 249 191 157 155 156 207 222 238 248 255 260 267 275 275 291 305 290 287 290 307 317 306 303 296 299 299 300 297 293 290 285 263 254 246 234 225 216
286 277 257 240 229 215 205 202 237 252 165 192 229 217 228 51 233 223 195 148 169 210 236 238 249 255 266 282 313 22 23 358 293 272 291 296 307 305 305 304 303 301 298 298 296 293 297 287 290 271 253 242 228 216
262 276 261 214 201 202 228 165 201 136 197 247 153 159 202 230 233 201 143 192 226 239 231 252 259 281 325 23 354 346 323 328 313 300 297 298 301 309 304 304 307 302 300 299 298 296 296 296 292 277 249 234 220 198
274 254 231 205 175 170 212 150 192 145 193 192 163 180 226 216 229 158 212 212 247 71 56 55 31 4 344 352 0 21 348 343 322 316 310 300 294 293 295 300 302 301 300 298 299 297 296 296 294 283 236 231 194 189
244 253 272 236 179 179 124 169 142 143 128 174 177 216 231 198 175 198 238 235 92 64 53 23 8 357 24 32 11 340 344 337 321 317 309 303 298 301 307 300 299 294 289 297 302 300 299 293 292 275 217 212 195 195
243 216 221 233 49 114 123 129 164 175 193 175 193 204 187 171 179 212 243 308 34 71 35 11 21 38 17 298 307 321 334 340 327 311 303 298 293 299 301 298 295 292 298 296 299 307 308 304 282 261 213 206 204 201
239 203 220 207 181 214 186 182 196 180 156 177 213 111 180 160 173 232 214 69 70 55 11 354 351 3 342 308 312 315 319 323 317 298 297 311 308 302 298 302 306 306 308 302 309 307 305 305 285 261 227 222 222 209
234 239 299 261 191 140 206 170 89 180 187 195 159 167 166 194 223 184 90 43 54 11 323 317 339 295 294 307 309 307 314 324 313 300 311 318 317 307 285 275 290 293 300 296 296 295 292 292 284 261 245 229 221 210
215 11 295 309 295 299 217 197 216 220 201 119 136 187 191 207 205 51 52 357 345 339 342 339 323 320 315 313 315 326 339 347 347 349 349 342 338 322 317 314 299 301 304 303 299 292 283 282 270 257 240 227 218 211
16 331 306 290 282 245 302 255 273 3 350 228 208 215 164 62 15 6 351 343 346 9 13 0 359 359 3 6 16 13 10 0 355 350 342 330 329 331 332 322 316 315 317 319 317 305 298 290 262 247 233 220 215 203
323 342 307 304 283 304 1 328 326 307 35 73 104 109 104 103 63 35 29 21 18 358 348 350 8 20 7 2 350 3 27 22 13 340 316 308 304 314 323 332 329 327 328 323 316 318 317 312 290 225 191 181 174 170
317 326 306 277 279 281 272 304 272 255 76 86 27 82 106 129 134 45 32 24 20 26 30 20 25 27 23 14 7 352 344 352 345 347 335 316 314 329 341 341 341 342 341 337 335 331 328 337 157 162 170 177 184 178
326 350 320 302 300 294 350 5 325 48 10 47 65 92 130 127 99 56 10 17 28 17 8 2 355 343 5 16 15 9 340 336 350 354 346 339 343 349 357 354 2 4 7 9 10 9 11 76 102 122 164 194 183 173
322 343 349 332 325 346 321 22 343 42 29 34 13 34 31 41 119 55 20 27 27 5 352 348 359 2 352 26 12 10 8 6 0 353 356 356 359 360 2 7 12 19 23 24 25 25 25 31 36 38 60 121 149 159